User: anonymous   Login
Location: Albany
(35.0000°S, 118.0000°E)
Time: 00:04:42
(UTC-05:00)
Language:

JAS-1B - Orbit

View from above orbital plane
View from above orbital plane
View from above satellite
View from above satellite

Ground track
Ground track

The orbit data is extracted from the following two-line orbital elements,

1 20480U 90013C   14326.84265198  .00000031  00000-0  14557-3 0  9063
2 20480 099.0675 260.2757 0540285 354.6058 064.8262 12.83399434161480
Epoch (UTC): 22 November 2014 20:13:25
Eccentricity: 0.0540285
inclination: 99.0675°
perigee height: 911 km
apogee height: 1744 km
right ascension of ascending node: 260.2757°
argument of perigee: 354.6058°
revolutions per day: 12.83399434
mean anomaly at epoch: 64.8262°
orbit number at epoch: 16148

The dashed part of the orbit path shows where the satellite is in the earth's shadow,  

DLR